Tracking 30995 objects as of 6-Jul-2025
HD Live streaming from Space Station
objects crossing your sky now

OBJECT A

Track OBJECT A now!
10-day predictions


NORAD ID: 53346
Int'l Code: 2022-090A
Perigee: 509.1 km
Apogee: 511.1 km
Inclination: 97.4 °
Period: 94.7 minutes
Semi major axis: 6881 km
RCS: Unknown
Launch date: August 4, 2022
Source: People's Republic of China (PRC)
Launch site: Taiyaun Space Center, China (TSC)

Note: This is a ROCKET BODY
Your satellite tracking list
Your tracking list is empty




NASA's NSSDC Master Catalog

Two Line Element Set (TLE):
1 53346U 22090A   25186.89445465  .00003364  00000-0  15505-3 0  9996
2 53346  97.3567 258.9568 0001434 270.3082  89.7989 15.20943569162167
Source of the keplerian elements: AFSPC